Date,TemperatureHighF,TemperatureAvgF,TemperatureLowF,DewpointHighF,DewpointAvgF,DewpointLowF,HumidityHigh,HumidityAvg,HumidityLow,PressureMaxIn,PressureMinIn,WindSpeedMaxMPH,WindSpeedAvgMPH,GustSpeedMaxMPH,PrecipitationSumIn
2013-1-1,37.2,34.3,20.1,23.7,17.3,2.1,61,50,42,31.93,24.99,12,4,0,0.00
2013-1-2,29.7,21.1,8.4,11.2,5.2,-5.0,65,50,43,31.90,24.99,12,2,0,0.00
2013-1-3,22.3,13.8,2.1,4.8,-2.0,-13.2,54,49,44,24.99,24.99,7,1,0,0.00
2013-1-4,37.8,31.1,18.5,21.8,16.4,4.5,64,55,43,24.99,24.99,15,4,0,0.00
2013-1-5,32.5,30.8,28.9,18.1,16.3,14.7,59,54,54,30.63,24.99,11,2,0,0.00
2013-1-6,42.3,33.1,28.4,24.5,20.4,14.7,79,61,48,24.99,24.99,6,2,0,0.00
2013-1-7,38.8,32.7,22.8,26.7,19.8,14.0,76,60,43,24.99,24.99,10,2,0,0.00
2013-1-8,44.2,32.6,20.8,25.3,20.4,12.8,79,62,43,24.99,24.99,9,1,0,0.00
2013-1-9,41.2,32.4,20.8,31.8,24.7,16.7,87,74,57,24.99,24.99,7,2,0,0.00
2013-1-10,45.0,36.6,28.8,30.6,20.1,16.4,80,51,39,24.99,24.99,13,2,0,0.00
2013-1-11,38.7,32.5,25.3,35.1,25.4,18.0,97,76,53,30.72,0.00,4,1,0,0.00
2013-1-12,45.1,39.4,35.6,43.0,38.5,35.1,98,96,89,27.06,24.99,5,1,0,0.00
2013-1-13,45.0,42.3,39.0,44.5,41.8,38.5,98,98,98,24.99,24.99,5,1,0,0.00
2013-1-14,51.3,43.9,35.8,50.9,37.6,20.4,98,80,53,24.99,24.99,11,2,0,0.00
2013-1-15,39.2,34.7,29.8,23.8,20.5,18.0,68,56,45,24.99,24.99,8,2,0,0.00
2013-1-16,33.3,33.3,33.3,18.0,18.0,18.0,53,53,53,0.00,40.00,6,6,0,0.00
2013-1-17,33.3,33.3,33.3,18.0,18.0,18.0,53,53,53,0.00,40.00,6,6,0,0.00
2013-1-18,33.3,33.3,33.3,18.0,18.0,18.0,53,53,53,0.00,40.00,6,6,0,0.00
2013-1-19,33.3,33.3,33.3,18.0,18.0,18.0,53,53,53,0.00,40.00,6,6,0,0.00
2013-1-20,33.3,33.3,33.3,18.0,18.0,18.0,53,53,53,0.00,40.00,6,6,0,0.00
2013-1-21,33.3,33.3,33.3,18.0,18.0,18.0,53,53,53,0.00,40.00,6,6,0,0.00
2013-1-22,33.3,31.3,10.6,18.0,15.5,-10.3,53,52,38,24.99,24.99,10,6,0,0.00
2013-1-23,19.0,11.4,5.5,-2.0,-9.7,-15.8,44,37,35,0.00,0.00,12,3,0,0.00
2013-1-24,23.5,11.1,1.6,2.0,-10.2,-19.4,48,37,34,0.00,0.00,16,3,0,0.00
2013-1-25,23.5,15.5,6.4,7.4,-3.0,-13.9,64,44,38,0.00,0.00,6,1,0,0.00
2013-1-26,26.8,16.9,8.2,7.1,2.2,-5.6,67,53,39,0.00,0.00,10,2,0,0.00
2013-1-27,33.3,18.9,5.4,9.4,-0.4,-11.0,65,43,33,0.00,0.00,6,1,0,0.00
2013-1-28,33.1,26.6,16.7,30.2,17.1,-1.3,89,68,44,0.00,0.00,7,1,0,0.00
2013-1-29,48.2,37.8,33.1,38.1,33.7,30.2,96,86,63,0.00,0.00,6,1,0,0.00
2013-1-30,57.7,47.0,37.0,55.4,46.0,35.9,98,96,90,0.00,0.00,13,2,0,0.00
2013-1-31,57.6,42.9,27.1,57.2,29.6,8.1,98,63,33,0.00,0.00,20,7,0,0.00
2013-2-1,32.7,26.3,21.7,9.6,6.1,1.7,49,42,34,0.00,0.00,15,5,0,0.00
2013-2-2,31.5,22.8,17.6,13.8,6.2,1.8,70,49,35,0.00,0.00,12,3,0,0.00
2013-2-3,31.6,23.0,14.2,16.3,11.3,7.9,77,62,44,0.00,0.00,6,1,0,0.00
2013-2-4,31.3,25.1,20.7,15.6,7.1,1.8,74,47,34,0.00,0.00,15,3,0,0.00
2013-2-5,33.1,26.9,21.7,21.6,13.7,5.8,77,58,45,0.00,0.00,6,1,0,0.00
2013-2-6,39.2,29.5,23.0,26.3,16.2,1.1,85,60,37,0.00,0.00,11,2,0,0.00
2013-2-7,34.7,25.1,16.2,10.3,4.2,-0.4,56,41,33,0.00,0.00,7,1,0,0.00
2013-2-8,34.0,29.7,25.2,28.0,20.3,7.7,92,70,43,0.00,0.00,10,2,0,0.00
2013-2-9,30.6,24.2,12.7,23.1,10.5,-4.3,90,59,34,0.00,0.00,14,4,0,0.00
2013-2-10,33.8,18.0,2.1,10.8,-0.8,-14.1,55,44,36,0.00,0.00,6,1,0,0.00
2013-2-11,41.0,33.2,19.2,37.2,27.6,4.8,98,80,53,0.00,0.00,8,1,0,0.00
2013-2-12,45.1,37.7,34.2,34.9,24.7,19.3,98,62,42,0.00,0.00,11,4,0,0.00
2013-2-13,44.1,35.0,24.8,25.4,18.7,15.1,75,52,39,0.00,0.00,6,1,0,0.00
2013-2-14,44.2,34.0,23.5,26.6,21.5,17.9,85,62,40,0.00,0.00,6,1,0,0.00
2013-2-15,51.8,40.4,30.7,27.7,23.1,18.9,67,51,37,0.00,0.00,8,2,0,0.00
2013-2-16,38.1,32.6,27.0,27.8,18.2,6.9,85,57,41,0.00,0.00,13,2,0,0.00
2013-2-17,31.3,23.7,15.3,7.4,2.2,-3.9,45,39,32,0.00,0.00,17,5,0,0.00
2013-2-18,36.0,23.9,14.4,9.1,2.3,-3.6,45,39,32,0.00,0.00,10,4,0,0.00
2013-2-19,44.1,34.1,25.0,33.8,20.4,5.4,93,60,40,0.00,0.00,10,2,0,0.00
2013-2-20,35.4,29.6,22.8,32.5,11.6,4.8,89,47,37,0.00,0.00,19,6,0,0.00
2013-2-21,35.8,26.3,21.6,13.8,8.5,6.0,55,47,40,0.00,0.00,12,4,0,0.00
2013-2-22,40.6,31.1,21.7,20.8,15.4,8.0,64,52,40,0.00,0.00,16,2,0,0.00
2013-2-23,40.3,36.0,32.7,35.4,29.6,20.6,92,78,58,0.00,0.00,5,0,0,0.00
2013-2-24,46.2,36.3,28.6,37.2,29.9,19.7,97,79,51,0.00,0.00,10,2,0,0.00
2013-2-25,46.4,34.6,23.4,28.4,21.7,17.6,81,61,40,0.00,0.00,8,1,0,0.00
2013-2-26,47.5,36.4,26.8,28.6,22.5,18.2,87,59,39,0.00,0.00,8,2,0,0.00
2013-2-27,45.3,39.3,33.4,41.0,36.4,26.9,98,89,76,0.00,0.00,13,2,0,0.00
2013-2-28,49.6,40.5,36.3,42.5,36.1,32.9,98,85,56,0.00,0.00,6,1,0,0.00
2013-3-1,46.0,37.3,32.5,38.1,29.4,20.7,98,75,50,0.00,0.00,8,1,0,0.00
2013-3-2,41.7,35.0,29.3,23.1,20.7,18.5,70,56,43,0.00,0.00,9,2,0,0.00
2013-3-3,39.7,31.3,27.1,22.6,17.6,12.3,70,57,41,0.00,0.00,10,2,0,0.00
2013-3-4,45.1,33.1,27.7,21.1,15.0,12.1,56,47,38,0.00,0.00,13,4,0,0.00
2013-3-5,47.5,35.8,26.4,23.8,19.1,14.3,68,51,38,0.00,0.00,10,2,0,0.00
2013-3-6,45.3,38.4,34.0,31.1,24.0,20.5,70,56,43,0.00,0.00,22,4,0,0.00
2013-3-7,40.5,35.0,31.5,30.9,25.5,19.8,94,70,51,0.00,0.00,17,3,0,0.00
2013-3-8,40.1,33.9,29.8,30.5,27.9,20.6,97,80,53,0.00,0.00,15,2,0,0.00
2013-3-9,52.0,38.4,29.1,23.2,19.1,14.4,63,47,29,0.00,0.00,15,3,0,0.00
2013-3-10,55.6,38.9,23.5,29.2,23.8,16.6,81,57,36,0.00,40.00,7,2,0,0.00
2013-3-11,56.3,44.5,33.8,43.5,34.1,26.4,83,68,45,0.00,0.00,10,2,0,0.00
2013-3-12,54.9,50.4,38.7,54.5,48.5,36.7,98,93,78,0.00,0.00,11,3,0,0.00
2013-3-13,52.2,39.7,31.1,37.2,28.1,19.0,98,68,34,0.00,0.00,13,2,0,0.00
2013-3-14,37.6,32.0,25.9,24.2,10.8,5.4,65,41,35,0.00,0.00,15,5,0,0.00
2013-3-15,43.3,33.9,24.6,26.3,14.4,4.6,64,45,35,0.00,0.00,13,4,0,0.00
2013-3-16,40.8,33.7,27.3,24.3,17.4,10.9,77,52,37,0.00,0.00,10,2,0,0.00
2013-3-17,42.3,31.3,21.9,24.5,12.7,3.7,78,48,29,0.00,0.00,10,2,0,0.00
2013-3-18,39.7,28.9,19.0,22.7,9.4,1.8,76,45,31,0.00,0.00,7,2,0,0.00
2013-3-19,41.2,33.9,29.1,35.6,29.1,22.5,92,83,74,0.00,0.00,10,1,0,0.00
2013-3-20,44.2,33.4,26.4,27.5,16.5,13.3,85,51,34,0.00,0.00,15,4,0,0.00
2013-3-21,41.9,32.4,24.4,19.2,14.5,8.3,76,50,32,0.00,0.00,9,2,0,0.00
2013-3-22,40.1,31.9,22.8,18.7,13.7,6.3,56,47,39,0.00,0.00,13,3,0,0.00
2013-3-23,47.3,37.2,30.9,20.5,16.7,11.4,57,44,31,0.00,0.00,14,4,0,0.00
2013-3-24,47.8,35.9,24.8,22.9,16.8,10.0,62,46,35,0.00,0.00,12,2,0,0.00
2013-3-25,50.2,39.0,30.9,24.4,19.7,17.1,60,46,33,0.00,0.00,20,3,0,0.00
2013-3-26,51.4,40.2,30.2,27.8,22.3,16.4,67,50,37,0.00,0.00,11,1,0,0.00
2013-3-27,56.3,38.6,23.2,28.2,20.0,15.5,80,50,29,0.00,0.00,10,2,0,0.00
2013-3-28,50.0,42.1,34.3,31.0,24.5,17.0,61,49,41,0.00,0.00,10,2,0,0.00
2013-3-29,56.7,42.6,28.2,30.1,24.2,21.2,79,50,32,0.00,0.00,12,2,0,0.00
2013-3-30,62.2,44.0,28.8,29.8,22.0,12.9,78,45,24,0.00,0.00,10,2,0,0.00
2013-3-31,60.3,42.8,27.0,38.1,24.4,13.7,81,50,27,0.00,0.00,11,2,0,0.00
2013-4-1,59.7,44.8,33.3,45.4,31.2,9.7,95,63,31,0.00,0.00,14,4,0,0.00
2013-4-2,44.8,35.1,28.6,14.0,10.3,6.3,45,36,28,0.00,0.00,15,6,0,0.00
2013-4-3,48.7,36.5,29.7,17.1,11.0,4.0,42,35,27,0.00,0.00,15,5,0,0.00
2013-4-4,58.8,40.3,24.3,24.1,15.5,6.6,53,37,25,0.00,0.00,11,2,0,0.00
2013-4-5,64.2,46.7,36.7,27.2,19.9,13.1,49,35,22,0.00,0.00,13,3,0,0.00
2013-4-6,54.0,40.6,30.6,17.1,11.9,6.8,46,31,21,0.00,0.00,18,3,0,0.00
2013-4-7,61.7,47.5,36.3,38.3,25.6,10.1,70,44,27,0.00,0.00,16,3,0,0.00
2013-4-8,70.5,54.1,39.0,40.2,35.9,30.8,90,54,29,0.00,0.00,9,2,0,0.00
2013-4-9,89.1,63.6,52.2,47.6,39.5,32.4,73,44,24,0.00,0.00,13,3,0,0.00
2013-4-10,66.9,55.6,48.4,53.4,47.5,36.0,96,76,49,0.00,0.00,10,1,0,0.00
2013-4-11,57.2,47.8,37.0,53.0,35.1,21.6,97,64,38,0.00,0.00,10,3,0,0.00
2013-4-12,42.3,39.7,36.9,38.4,34.0,27.1,88,80,67,0.00,0.00,11,2,0,0.00
2013-4-13,59.9,46.9,37.2,41.4,34.5,26.8,96,66,36,0.00,0.00,10,2,0,0.00
2013-4-14,57.6,46.0,36.9,35.8,26.0,18.8,73,47,31,0.00,0.00,12,3,0,0.00
2013-4-15,66.2,48.8,33.4,34.9,27.6,20.2,73,46,29,0.00,0.00,10,2,0,0.00
2013-4-16,68.9,55.3,43.0,50.7,39.8,24.0,79,56,43,0.00,0.00,12,3,0,0.00
2013-4-17,68.4,56.0,45.3,53.7,36.5,25.8,93,53,25,0.00,0.00,13,2,0,0.00
2013-4-18,64.6,51.9,38.5,45.3,34.9,27.7,75,54,33,0.00,0.00,12,2,0,0.00
2013-4-19,73.9,63.5,52.7,62.3,56.1,45.1,97,77,58,0.00,0.00,13,4,0,0.00
2013-4-20,63.7,50.7,39.7,58.6,33.8,16.2,97,59,27,0.00,0.00,15,4,0,0.00
2013-4-21,55.8,42.3,30.7,23.2,17.7,13.5,55,38,26,0.00,0.00,14,3,0,0.00
2013-4-22,63.1,46.1,33.1,29.0,24.0,18.5,72,44,25,0.00,0.00,10,2,0,0.00
2013-4-23,55.9,43.2,31.8,36.3,30.6,23.8,74,61,46,0.00,0.00,10,2,0,0.00
2013-4-24,76.8,53.6,33.3,47.2,39.2,29.6,93,62,32,0.00,0.00,12,2,0,0.00
2013-4-25,66.6,54.6,43.0,52.2,28.9,19.7,84,39,23,0.00,0.00,11,3,0,0.00
2013-4-26,67.3,50.4,34.2,34.1,27.6,21.5,73,43,25,0.00,0.00,11,2,0,0.00
2013-4-27,70.5,52.9,33.3,31.6,25.7,20.2,72,37,22,0.00,0.00,10,2,0,0.00
2013-4-28,75.6,56.7,38.5,40.0,30.9,22.6,71,40,24,0.00,0.00,12,2,0,0.00
2013-4-29,59.5,54.9,50.4,43.6,37.6,22.8,63,52,30,0.00,0.00,7,1,0,0.00
2013-4-30,75.6,59.6,49.1,43.6,34.2,20.3,72,42,22,0.00,0.00,8,2,0,0.00
2013-5-1,76.8,57.6,37.6,37.6,30.1,21.2,64,38,21,0.00,0.00,8,2,0,0.00
2013-5-2,80.6,61.3,41.0,46.0,38.3,30.9,85,47,23,0.00,0.00,6,2,0,0.00
2013-5-3,73.9,60.7,48.9,37.4,31.5,25.7,50,34,22,0.00,0.00,9,2,0,0.00
2013-5-4,78.6,58.5,0.0,44.4,37.3,0.0,85,49,21,0.00,0.00,9,2,0,0.00
2013-5-5,76.5,55.3,0.0,39.9,34.8,0.0,88,50,21,0.00,0.00,8,2,0,0.00
2013-5-6,77.7,56.4,0.0,47.5,40.0,0.0,87,57,27,0.00,0.00,6,2,0,0.00
2013-5-7,80.8,63.0,45.0,51.9,46.7,41.6,94,60,29,0.00,0.00,8,1,0,0.00
2013-5-8,70.9,61.5,55.0,63.6,57.1,51.6,96,85,69,29.60,0.00,8,1,0,0.00
2013-5-9,68.7,57.7,48.9,60.8,54.9,48.4,98,91,60,29.60,29.45,3,0,0,0.00
2013-5-10,79.7,62.9,47.3,59.7,52.1,46.3,98,72,33,29.57,29.45,6,1,0,0.00
2013-5-11,70.9,62.9,0.0,64.2,59.4,0.0,98,87,70,29.45,29.27,6,1,0,0.00
2013-5-12,67.8,57.8,0.0,60.2,43.8,0.0,98,65,24,29.48,29.24,12,2,0,0.00
2013-5-13,59.4,47.5,38.8,32.0,27.4,23.5,64,46,35,29.69,29.48,10,2,0,0.00
2013-5-14,66.2,47.3,31.3,35.8,27.9,21.4,87,51,25,29.72,29.60,6,1,0,0.00
2013-5-15,71.1,52.4,34.3,53.9,40.3,26.3,83,65,42,29.66,29.24,11,1,0,0.00
2013-5-16,85.1,65.5,46.6,55.2,42.7,29.7,97,53,19,29.42,29.27,8,2,0,0.00
2013-5-17,73.8,61.0,49.6,44.3,37.1,31.3,69,42,29,29.77,29.42,10,2,0,0.00
2013-5-18,72.0,57.0,42.6,48.8,43.0,38.2,87,62,35,29.89,29.77,6,1,0,0.00
2013-5-19,59.2,56.8,54.3,56.9,53.8,47.7,98,90,78,29.89,29.74,4,0,0,0.00
2013-5-20,85.5,68.0,56.5,66.1,59.4,55.5,98,77,39,29.74,29.51,4,1,0,0.00
2013-5-21,91.2,76.2,63.0,68.6,64.2,60.1,98,69,36,29.57,29.36,6,1,0,0.00
2013-5-22,83.7,72.0,64.0,71.4,64.0,58.8,92,76,59,29.51,29.39,10,1,0,0.00
2013-5-23,74.1,68.4,65.1,70.2,66.1,60.4,98,92,80,29.45,29.33,4,0,0,0.00
2013-5-24,65.7,55.7,43.7,65.3,54.8,43.2,98,96,89,29.54,29.24,7,2,0,0.00
2013-5-25,50.5,46.4,43.9,48.9,43.7,38.4,98,90,74,29.54,29.45,6,3,0,0.00
2013-5-26,64.8,53.4,45.3,42.8,36.3,29.6,77,54,35,29.74,29.48,7,3,0,0.00
2013-5-27,80.8,58.8,39.2,43.7,37.2,32.0,83,49,22,29.80,29.69,4,1,0,0.00
2013-5-28,70.2,56.1,43.7,56.2,47.3,37.4,96,74,41,29.80,29.72,3,0,0,0.00
2013-5-29,83.7,67.6,57.0,69.2,61.8,55.9,98,83,55,29.72,29.54,6,1,0,0.00
2013-5-30,93.0,75.9,60.6,69.9,63.8,58.2,98,70,33,29.72,29.60,3,0,0,0.00
2013-5-31,93.7,77.9,62.8,68.4,62.4,55.1,98,63,29,29.72,29.57,3,1,0,0.00
2013-6-1,93.0,78.1,64.8,67.1,62.6,55.1,85,60,35,29.60,29.45,6,2,0,0.00
2013-6-2,88.0,78.3,69.6,69.6,64.6,59.8,86,64,41,29.48,29.33,6,2,0,0.00
2013-6-3,83.3,70.2,56.5,68.5,61.9,46.6,98,76,44,29.51,29.36,4,1,0,0.00
2013-6-4,82.2,62.3,47.3,52.1,42.9,35.4,89,53,24,29.72,29.51,6,1,0,0.00
2013-6-5,80.2,62.4,46.0,50.0,42.8,39.1,84,51,29,29.80,29.69,4,1,0,0.00
2013-6-6,73.4,61.2,50.2,56.4,48.3,40.7,93,64,41,29.74,29.63,5,1,0,0.00
2013-6-7,61.3,58.8,56.8,60.6,57.7,55.0,98,96,92,29.63,29.33,3,0,0,0.00
2013-6-8,77.2,64.6,55.2,65.6,58.4,54.8,98,81,58,29.66,29.33,5,1,0,0.00
2013-6-9,85.6,68.3,54.7,63.3,56.1,49.3,98,69,32,29.77,29.66,3,0,0,0.00
2013-6-10,72.9,62.5,57.7,65.3,59.8,55.5,98,91,67,29.77,29.45,4,0,0,0.00
2013-6-11,77.0,66.6,60.3,72.4,62.2,53.4,98,86,63,29.45,29.18,4,1,0,0.00
2013-6-12,77.0,66.3,56.3,55.3,50.7,45.9,82,58,39,29.45,29.27,6,3,0,0.00
2013-6-13,59.2,56.1,52.0,58.4,54.8,50.2,98,95,83,29.42,29.18,4,2,0,0.00
2013-6-14,76.3,60.7,51.6,62.4,55.2,50.7,98,83,46,29.48,29.21,4,2,0,0.00
2013-6-15,85.8,66.3,49.6,58.7,50.5,41.4,98,62,27,29.60,29.45,3,1,0,0.00
2013-6-16,78.1,65.1,50.4,61.1,53.6,45.6,91,68,47,29.57,29.33,3,0,0,0.00
2013-6-17,87.4,70.7,58.3,66.8,60.0,47.5,98,72,31,29.51,29.39,2,0,0,0.00
2013-6-18,79.3,65.5,58.3,67.2,60.5,56.4,98,85,58,29.54,29.45,4,1,0,0.00
2013-6-19,81.9,64.5,53.4,56.4,49.1,40.0,95,62,29,29.77,29.51,3,1,0,0.00
2013-6-20,84.6,65.9,48.0,57.4,49.3,45.0,92,59,29,29.86,29.77,2,0,0,0.00
2013-6-21,86.4,71.5,58.8,63.8,55.3,50.0,79,58,36,29.86,29.80,4,0,0,0.00
2013-6-22,86.2,73.0,59.7,60.6,56.3,52.4,82,57,37,29.83,29.69,2,1,0,0.00
2013-6-23,93.4,77.7,65.7,69.3,61.4,53.6,78,59,31,29.77,29.63,3,1,0,0.00
2013-6-24,93.9,78.7,67.6,71.6,66.5,58.0,90,68,38,29.66,29.54,2,0,0,0.00
2013-6-25,90.3,75.9,64.8,75.0,68.2,62.8,97,79,42,29.60,29.36,1,0,0,0.00
2013-6-26,82.8,74.4,67.3,73.4,68.5,65.9,97,82,58,29.42,29.36,0,0,0,0.00
2013-6-27,87.3,74.0,65.8,73.4,68.0,62.3,98,83,45,29.42,29.12,0,0,0,0.00
2013-6-28,87.6,75.8,69.4,73.2,67.9,61.4,98,78,43,29.12,29.04,0,0,0,0.00
2013-6-29,72.0,56.3,0.0,67.1,52.5,0.0,84,66,84,29.10,29.10,0,0,0,0.00
2013-7-3,0.0,0.0,0.0,0.0,0.0,0.0,0,0,100,0.00,40.00,0,0,0,0.00
2013-7-15,84.9,84.9,84.9,-99.9,-99.9,-99.9,55,55,55,0.00,40.00,0,-999,0,0.00
2013-7-16,75.9,74.9,74.7,-99.9,-99.9,-99.9,78,76,71,0.00,40.00,0,-999,0,0.00
2013-7-17,95.7,86.4,70.3,72.2,59.0,-99.9,98,54,36,0.00,40.00,0,-999,0,0.00
2013-7-18,96.1,81.9,71.2,77.3,71.3,65.7,98,73,39,29.88,29.83,0,-999,0,0.25
2013-7-19,95.9,83.4,71.8,76.6,71.8,67.2,98,71,41,29.85,29.62,0,-999,0,0.00
2013-7-20,91.9,80.7,71.4,73.1,68.2,61.0,82,67,38,29.74,29.59,6,-628,6,0.00
2013-7-21,85.5,74.4,66.4,66.4,63.6,57.8,90,72,42,29.85,29.74,4,0,6,0.00
2013-7-22,73.6,73.5,73.2,71.1,70.6,70.3,93,91,90,29.71,29.71,2,0,2,0.00
2013-7-23,88.9,75.7,71.1,75.0,70.5,64.4,98,86,47,29.71,29.44,4,1,10,0.96
2013-7-24,80.4,72.2,59.5,74.3,61.4,48.4,98,70,51,29.85,29.56,5,1,7,0.00
2013-7-25,73.0,64.3,57.2,59.5,52.7,46.7,83,66,54,29.97,29.85,4,1,8,0.00
2013-7-26,83.8,70.0,62.6,61.1,57.9,54.3,86,68,40,29.94,29.88,4,1,5,0.00
2013-7-27,86.0,71.2,57.9,64.6,58.8,54.9,97,69,38,29.94,29.83,4,1,5,0.00
2013-7-28,79.5,69.4,64.8,71.6,65.0,58.5,98,86,64,29.88,29.80,3,0,6,0.20
2013-7-29,84.2,72.9,63.1,70.5,62.1,48.4,98,73,34,29.97,29.83,5,1,7,0.00
2013-7-30,81.1,67.7,56.3,61.4,56.0,52.3,94,69,40,30.06,29.97,4,1,6,0.00
2013-7-31,74.8,64.1,57.0,62.1,57.5,55.3,95,81,51,30.06,29.91,3,0,4,0.00
2013-8-1,77.0,66.9,62.6,66.5,62.5,58.7,98,86,57,29.91,29.74,4,0,8,0.13
2013-8-2,83.3,71.4,64.2,68.3,62.4,54.2,98,76,42,29.77,29.68,5,1,7,0.25
2013-8-3,82.6,69.9,61.9,66.1,60.5,56.0,87,73,48,29.77,29.71,5,1,8,0.00
2013-8-4,80.2,65.0,54.7,60.8,54.5,45.6,96,71,39,29.85,29.74,6,1,11,0.04
2013-8-5,79.5,65.3,51.6,55.5,47.7,40.3,94,57,31,29.94,29.85,4,1,6,0.00
2013-8-6,83.3,68.9,50.2,56.9,50.9,46.6,92,57,31,30.00,29.94,5,1,6,0.00
2013-8-7,77.7,68.9,59.9,63.9,58.1,52.7,88,69,50,30.03,29.94,4,1,6,0.00
2013-8-8,86.5,74.3,68.4,70.1,67.1,63.7,93,79,53,29.94,29.85,4,1,6,0.00
2013-8-9,82.6,73.5,69.6,77.8,71.8,68.4,98,95,80,29.88,29.68,5,1,6,5.53
2013-8-10,83.7,71.1,60.1,69.6,61.1,49.2,98,75,38,29.94,29.74,5,1,7,0.00
2013-8-11,80.4,65.9,52.2,59.3,53.8,49.2,93,68,40,30.03,29.88,4,1,6,0.00
2013-8-12,83.5,70.0,59.9,64.8,58.2,52.4,97,70,37,29.91,29.80,4,1,4,0.00
2013-8-13,76.6,69.0,64.6,70.4,65.6,59.5,98,89,73,29.80,29.56,6,0,8,0.79
2013-8-14,75.9,63.7,54.5,64.0,54.1,45.3,98,74,42,29.91,29.65,6,1,9,0.38
2013-8-15,78.1,61.9,50.0,56.1,51.1,47.1,95,71,40,30.03,29.91,4,1,5,0.00
2013-8-16,79.3,64.3,52.7,59.3,53.1,48.4,96,71,40,30.09,30.00,3,0,4,0.00
2013-8-17,81.1,66.2,54.5,61.7,55.3,50.7,97,72,38,30.18,30.09,3,0,5,0.00
2013-8-18,76.5,65.8,57.7,65.9,60.4,55.9,96,84,65,30.15,30.00,3,0,3,0.00
2013-8-19,78.6,69.1,59.4,66.3,62.3,58.8,98,80,59,30.00,29.88,3,0,4,0.00
2013-8-20,84.6,70.1,57.6,66.6,60.7,55.9,98,76,40,30.00,29.94,3,0,4,0.00
2013-8-21,86.2,71.1,58.6,67.5,61.6,56.7,98,75,39,30.06,29.91,4,0,5,0.00
2013-8-22,84.2,72.9,63.9,72.1,66.4,61.2,98,81,57,29.94,29.74,6,1,6,0.00
2013-8-23,80.6,69.7,57.9,68.7,58.5,46.9,98,71,40,30.03,29.77,5,1,8,0.00
2013-8-24,78.3,63.9,52.2,55.5,50.8,45.8,93,66,34,30.24,30.03,5,1,6,0.00
2013-8-25,81.7,65.1,50.2,59.7,53.1,48.5,95,69,36,30.27,30.09,4,1,6,0.00
2013-8-26,76.1,68.8,63.1,69.1,61.1,52.7,98,77,61,30.09,29.80,3,1,4,0.29
2013-8-27,82.9,72.6,67.6,71.3,67.6,64.4,98,86,59,29.80,29.68,4,1,6,0.83
2013-8-28,86.9,71.1,63.7,71.8,66.5,63.1,98,87,50,29.80,29.71,6,0,10,0.00
2013-8-29,80.4,70.2,64.2,69.3,65.1,62.3,98,85,60,29.91,29.80,5,0,6,0.00
2013-8-30,84.0,73.5,65.3,69.5,65.6,61.1,96,78,49,29.91,29.71,4,1,6,0.00
2013-8-31,83.1,74.7,69.3,74.3,69.7,67.4,98,85,69,29.71,29.65,5,1,7,0.04
2013-9-1,81.9,73.9,68.7,75.1,71.0,68.1,98,91,75,29.74,29.68,3,0,4,0.00
2013-9-2,84.7,72.5,64.4,74.3,68.5,63.5,98,88,66,29.68,29.59,4,1,8,1.91
2013-9-3,75.4,67.0,59.9,69.9,63.2,55.9,98,89,60,29.74,29.62,4,0,6,0.20
2013-9-4,80.1,65.8,54.7,63.4,55.8,51.1,98,74,42,29.85,29.74,5,1,7,0.00
2013-9-5,74.1,63.7,51.4,62.4,51.2,39.7,92,67,34,30.03,29.77,5,1,6,0.00
2013-9-6,71.4,55.6,44.1,49.9,42.4,36.5,93,65,33,30.15,30.00,4,1,6,0.00
2013-9-7,77.4,60.3,45.7,55.1,49.3,42.3,94,70,39,30.00,29.77,4,1,5,0.00
2013-9-8,78.3,65.2,52.3,63.2,52.0,40.4,92,65,34,29.97,29.68,6,1,10,0.00
2013-9-9,72.1,57.9,43.7,52.8,45.6,39.9,91,66,41,30.12,29.97,4,1,6,0.00
2013-9-10,80.4,70.3,61.9,72.8,65.1,52.4,96,84,71,30.03,29.88,3,1,5,0.04
2013-9-11,91.9,78.8,70.3,76.9,71.2,63.2,98,80,50,29.97,29.83,5,1,6,0.00
2013-9-12,83.1,72.6,67.1,75.3,68.7,64.9,98,88,65,29.85,29.56,5,1,7,0.37
2013-9-13,74.5,65.2,55.2,69.2,62.1,51.3,98,90,66,29.74,29.50,4,0,7,0.21
2013-9-14,68.4,56.9,47.8,53.0,48.9,44.2,96,76,49,30.00,29.74,4,1,5,0.00
2013-9-15,68.2,54.4,41.7,51.3,46.0,40.7,98,76,41,30.09,29.94,3,0,4,0.00
2013-9-16,70.5,58.8,49.5,57.8,51.7,38.8,95,78,52,30.15,29.91,4,1,6,0.00
2013-9-17,64.8,51.0,39.4,42.9,39.5,36.1,91,67,41,30.33,30.15,6,1,8,0.00
2013-9-18,70.9,53.6,40.6,50.9,43.6,38.2,98,72,38,30.24,30.03,4,1,6,0.00
2013-9-19,74.7,56.8,42.3,52.4,46.3,40.7,96,72,35,30.06,29.94,3,1,4,0.00
2013-9-20,77.7,60.5,45.5,58.7,50.5,44.2,97,73,35,29.97,29.85,3,1,5,0.00
2013-9-21,73.8,64.6,55.8,65.7,58.5,53.2,97,81,63,29.88,29.50,5,1,6,0.29
2013-9-22,68.9,60.4,53.1,65.7,51.6,39.1,98,75,45,29.80,29.53,6,1,6,0.66
2013-9-23,64.2,52.7,43.7,41.8,39.4,36.7,83,62,41,29.94,29.80,5,1,8,0.00
2013-9-24,68.9,51.5,37.9,47.0,41.7,35.6,95,72,39,29.94,29.77,4,1,5,0.00
2013-9-25,70.0,53.6,40.1,50.9,45.3,38.2,96,76,42,29.85,29.77,3,0,4,0.00
2013-9-26,68.7,56.6,49.3,54.1,48.6,43.7,97,77,46,30.00,29.85,4,1,6,0.00
2013-9-27,66.6,55.9,45.9,53.1,48.7,44.5,98,78,53,30.15,30.00,4,0,6,0.00
2013-9-28,72.9,56.5,45.0,56.7,49.4,43.8,97,79,47,30.24,30.12,3,0,4,0.00
2013-9-29,73.0,56.5,46.4,56.9,50.0,45.0,98,81,44,30.12,29.94,4,0,5,0.00
2013-9-30,72.7,56.5,45.3,55.7,48.6,44.2,97,78,43,29.97,29.83,3,0,4,0.00
2013-10-1,76.3,58.3,44.2,56.8,51.5,43.2,98,81,46,29.91,29.77,3,0,5,0.00
2013-10-2,79.7,62.7,48.7,61.3,54.7,48.2,98,78,49,29.91,29.80,3,0,4,0.00
2013-10-3,73.9,60.8,48.0,59.5,52.3,46.8,98,77,41,30.03,29.91,3,0,3,0.00
2013-10-4,77.2,63.7,53.6,64.4,58.5,52.8,98,84,62,29.94,29.85,3,0,5,0.00
2013-10-5,72.3,63.9,59.7,64.2,60.8,59.2,98,90,69,30.00,29.91,4,0,4,0.13
2013-10-6,63.3,60.6,58.8,62.6,59.6,58.3,98,97,91,30.00,29.91,4,0,6,1.74
2013-10-7,74.8,65.0,54.0,69.1,63.3,53.2,98,95,74,29.91,29.59,10,1,13,0.46
2013-10-8,65.7,52.2,45.3,53.2,45.7,38.9,98,82,41,30.24,29.83,5,1,10,0.00
2013-10-9,65.1,50.1,41.0,48.5,42.8,37.2,97,79,36,30.33,30.21,4,0,7,0.00
2013-10-10,58.1,50.7,42.4,47.3,44.5,40.8,96,80,63,30.21,30.03,3,0,4,0.00
2013-10-11,70.3,57.9,48.6,55.4,48.3,42.2,84,71,54,30.03,29.94,4,0,6,0.00
2013-10-12,72.9,56.6,43.0,54.1,47.3,41.4,98,75,38,30.21,30.00,7,1,11,0.00
2013-10-13,67.3,55.3,46.2,52.2,46.1,43.2,97,74,44,30.30,30.21,5,0,6,0.00
2013-10-14,66.9,53.3,41.2,50.4,45.1,39.3,96,76,44,30.27,30.12,4,0,5,0.00
2013-10-15,70.9,57.5,48.0,57.2,48.4,34.7,97,74,48,30.15,30.00,4,0,4,0.00
2013-10-16,63.0,55.5,47.1,55.7,48.6,37.6,87,78,62,30.00,29.80,3,0,3,0.00
2013-10-17,73.8,64.8,59.0,61.8,55.6,47.7,96,75,42,29.80,29.53,6,1,7,0.00
2013-10-18,66.7,59.3,48.2,61.6,43.8,33.4,94,59,34,29.85,29.53,7,3,10,0.00
2013-10-19,65.8,52.5,41.2,49.8,40.1,34.9,88,65,35,29.85,29.62,6,1,9,0.04
2013-10-20,61.9,51.2,41.9,49.0,38.5,30.2,95,66,35,29.94,29.62,7,2,11,0.08
2013-10-21,66.2,51.2,37.2,40.7,35.6,31.2,86,59,34,30.03,29.85,6,1,7,0.00
2013-10-22,61.5,51.1,40.8,49.0,41.6,35.3,86,71,52,29.85,29.62,5,1,6,0.00
2013-10-23,55.0,43.1,33.4,41.8,33.9,30.0,93,72,41,29.71,29.50,6,1,6,0.00
2013-10-24,55.6,43.4,34.7,35.4,27.8,22.1,80,56,33,29.85,29.62,10,3,15,0.00
2013-10-25,53.1,42.2,34.7,31.4,26.1,22.0,75,54,37,30.06,29.83,8,2,10,0.00
2013-10-26,55.0,44.8,36.0,30.8,27.6,23.2,77,53,33,30.06,29.77,10,2,16,0.04
2013-10-27,57.7,47.8,36.7,30.4,26.5,22.8,59,44,33,29.97,29.71,8,2,13,0.00
2013-10-28,62.2,44.0,30.7,34.1,28.2,23.4,80,56,35,30.21,29.97,8,2,11,0.00
2013-10-29,51.8,41.3,33.1,27.0,22.9,19.5,65,48,37,30.33,30.21,5,1,6,0.00
2013-10-30,56.7,43.2,32.2,41.4,33.3,21.6,88,69,52,30.24,30.06,4,1,5,0.00
2013-10-31,59.7,49.7,37.4,59.0,47.9,34.4,98,94,87,30.12,29.65,4,1,6,0.21
2013-11-1,67.8,61.9,51.1,61.8,53.3,39.2,98,76,43,29.65,29.35,14,3,18,0.21
2013-11-2,64.4,50.9,42.4,48.1,42.1,38.4,92,73,42,29.65,29.47,6,1,6,0.00
2013-11-3,49.8,40.1,29.8,41.0,26.4,13.8,86,59,41,30.36,29.65,7,2,11,0.00
2013-11-4,44.6,33.1,25.3,20.4,15.8,13.0,63,49,35,30.53,30.36,5,1,7,0.00
2013-11-5,54.1,41.4,28.6,34.2,26.8,16.3,70,57,42,30.56,30.36,6,1,8,0.00
2013-11-6,59.4,51.0,40.8,45.7,39.8,34.2,82,67,47,30.36,29.91,6,2,8,0.00
2013-11-7,59.7,51.1,35.8,57.2,45.7,28.2,94,82,62,29.91,29.62,7,2,8,0.13
2013-11-8,49.5,39.4,34.5,31.6,25.9,21.3,79,60,39,30.03,29.77,10,3,13,0.00
2013-11-9,49.6,42.1,36.0,28.8,24.5,21.3,66,50,38,30.12,29.85,7,2,8,0.00
2013-11-10,55.6,46.3,40.8,35.9,28.8,23.8,69,51,40,29.88,29.68,11,3,14,0.00
2013-11-11,53.4,45.9,37.9,28.6,24.5,21.4,53,43,37,30.03,29.80,8,3,10,0.00
2013-11-12,47.8,35.1,24.6,31.9,20.5,11.3,81,56,43,30.15,29.80,7,2,8,0.08
2013-11-13,38.5,28.5,18.9,15.6,11.7,8.7,70,50,35,30.24,30.09,6,1,9,0.00
2013-11-14,53.8,39.6,28.9,23.0,15.7,11.8,52,39,26,30.09,29.94,7,3,9,0.00
2013-11-15,59.2,44.9,34.0,24.1,17.2,10.5,41,33,25,30.09,30.00,5,2,7,0.00
2013-11-16,59.5,46.6,36.3,37.2,30.0,17.0,81,54,35,30.21,30.09,4,1,5,0.00
2013-11-17,58.5,51.9,41.7,57.9,48.6,34.9,98,89,77,30.15,29.65,5,1,9,0.04
2013-11-18,61.3,55.7,46.6,59.5,40.3,22.4,98,61,34,29.65,29.41,13,4,17,0.17
2013-11-19,46.9,39.6,28.4,25.1,19.1,14.3,56,44,38,30.24,29.62,12,4,15,0.00
2013-11-20,40.5,30.4,22.8,16.8,12.5,9.3,59,48,35,30.50,30.24,6,2,10,0.00
2013-11-21,46.9,33.6,18.1,30.5,19.7,10.2,76,58,41,30.50,30.24,4,1,4,0.00
2013-11-22,53.6,47.5,42.4,48.6,42.0,30.9,93,81,63,30.24,29.77,5,1,8,0.17
2013-11-23,51.6,39.0,27.1,44.5,20.4,6.2,77,47,36,29.91,29.74,11,4,15,0.00
2013-11-24,29.3,24.4,21.9,6.6,2.4,-0.7,45,38,31,30.18,29.83,11,5,19,0.04
2013-11-25,34.2,25.6,12.9,12.4,7.0,-0.2,60,45,39,30.33,30.15,8,2,10,0.00
2013-11-26,37.6,33.7,30.9,31.6,20.3,9.5,89,60,40,30.18,29.74,6,1,7,0.00
2013-11-27,51.4,41.3,33.4,50.5,39.6,18.3,98,94,54,29.74,29.23,9,2,11,0.00
2013-11-28,33.4,28.4,23.5,19.3,10.5,5.5,57,47,40,30.33,29.56,12,4,13,0.00
2013-11-29,36.3,27.3,20.7,17.6,13.6,8.8,72,56,42,30.59,30.33,5,1,7,0.00
2013-11-30,34.0,25.3,14.7,16.5,10.7,7.1,74,55,39,30.62,30.27,5,1,8,0.00
2013-12-1,44.6,35.6,28.4,28.9,22.8,16.5,75,59,49,30.27,29.85,4,0,4,0.00
2013-12-2,42.3,34.9,29.5,37.6,30.4,23.3,93,84,74,29.88,29.77,3,0,4,0.00
2013-12-3,39.9,31.6,26.8,36.2,29.3,24.8,95,91,83,29.88,29.77,3,1,3,0.00
2013-12-4,46.8,34.7,24.6,35.3,28.8,22.4,94,80,57,30.00,29.88,4,1,4,0.00
2013-12-5,53.6,47.0,40.5,52.6,44.4,32.8,98,91,74,30.00,29.80,3,1,6,0.00
2013-12-6,53.1,43.0,33.3,52.5,40.5,31.3,98,91,72,30.03,29.74,8,2,10,0.00
2013-12-7,38.8,32.8,27.3,36.4,26.9,14.3,98,80,56,30.39,29.97,5,1,8,0.00
2013-12-8,31.8,27.5,20.3,20.4,16.6,12.7,78,63,54,30.48,30.30,3,1,4,0.00
2013-12-9,33.6,31.4,27.9,32.6,28.8,20.4,98,90,71,30.30,29.80,4,1,5,0.00
2013-12-10,35.1,30.5,21.7,34.0,28.4,17.7,98,92,77,29.94,29.71,4,1,6,0.00
2013-12-11,30.7,24.5,20.1,17.8,15.3,13.4,84,68,52,30.15,29.94,6,2,8,0.00
2013-12-12,26.2,20.0,14.4,16.0,7.5,1.6,73,59,43,30.21,29.97,7,2,9,0.00
2013-12-13,32.2,24.4,16.9,13.2,8.1,3.1,55,50,43,30.21,29.91,11,4,14,0.00
2013-12-14,22.3,18.1,14.7,12.1,7.7,4.8,78,64,47,30.39,29.83,6,2,9,0.00
2013-12-15,35.4,27.6,18.0,27.6,19.9,12.6,88,73,52,29.83,29.41,8,2,13,0.00
2013-12-16,28.2,22.5,8.4,18.5,5.9,-5.5,67,49,41,30.09,29.65,10,4,14,0.00
2013-12-17,19.8,13.3,2.8,14.0,3.4,-10.7,79,65,52,30.09,29.83,4,1,4,0.00
2013-12-18,34.3,22.8,9.5,22.0,13.8,3.8,78,68,56,29.97,29.80,6,1,8,0.00
2013-12-19,42.8,33.0,23.9,22.4,18.5,13.8,67,55,41,30.00,29.85,5,2,8,0.00
2013-12-20,51.4,40.3,31.5,29.8,25.0,20.8,73,55,39,29.97,29.80,4,1,6,0.00
2013-12-21,58.1,46.3,39.2,42.8,33.8,25.4,95,63,46,29.85,29.74,4,1,6,0.00
2013-12-22,64.6,57.1,41.7,61.3,53.2,40.3,98,88,71,29.83,29.59,8,2,11,0.00
2013-12-23,57.9,46.8,35.6,53.6,45.1,31.3,98,94,83,30.03,29.80,7,1,11,0.00
2013-12-24,36.1,30.4,21.0,31.3,20.4,6.4,84,67,49,30.18,29.97,8,2,15,0.00
2013-12-25,25.9,19.0,11.8,8.3,3.5,-0.4,61,50,42,30.39,30.18,7,1,8,0.00
2013-12-26,32.9,26.6,20.5,22.0,16.7,8.5,78,66,57,30.27,30.00,5,1,6,0.00
2013-12-27,35.6,29.4,23.5,20.3,17.6,14.4,78,62,46,30.18,30.09,7,2,8,0.00
2013-12-28,47.1,36.0,25.5,24.9,21.4,17.3,76,56,40,30.12,29.88,6,2,9,0.00
2013-12-29,42.8,38.9,34.5,37.5,29.4,22.1,97,71,50,29.91,29.38,6,1,9,0.00
2013-12-30,40.3,30.9,15.4,37.9,21.2,3.1,98,70,42,30.09,29.53,7,2,10,0.00
2013-12-31,29.7,20.7,13.1,19.0,9.0,3.3,76,61,45,30.12,29.88,8,2,13,0.00
2014-1-1,30.4,23.9,18.1,15.2,8.5,3.2,72,51,42,30.27,30.09,6,2,8,0.00
2014-1-2,22.8,13.4,4.1,15.5,5.5,-3.8,74,70,69,30.15,29.65,7,3,11,0.00